Satellite-Ground Cal/Val Region Overpasses Predictions

Prediction of Satellite NPP Overpassing Cal/Val Region: PacNW

Region Location: (Latitude: 10.00, Longitude: 139.50) to (Latitude: 22.70, Longitude: 165.60).

Table of predicted overpasses for the next 14.0 days since TLE Epoch: 5/28/2017
Interval Starting Time Starting Location Ending Time Ending Location
1 05/29/2017 02:45:27 ( 10.03, 158.35) 05/29/2017 02:49:02 ( 22.65, 155.34)
2 05/29/2017 15:17:20 ( 22.69, 155.59) 05/29/2017 15:20:56 ( 10.01, 152.57)
3 05/30/2017 02:26:26 ( 10.06, 163.10) 05/30/2017 02:30:01 ( 22.68, 160.10)
4 05/30/2017 14:58:18 ( 22.66, 160.34) 05/30/2017 15:01:53 ( 10.04, 157.34)
5 05/31/2017 02:10:08 ( 19.71, 165.59) 05/31/2017 02:10:58 ( 22.64, 164.86)
6 05/31/2017 03:48:53 ( 10.03, 142.49) 05/31/2017 03:52:27 ( 22.59, 139.50)
7 05/31/2017 14:39:16 ( 22.70, 165.11) 05/31/2017 14:42:52 ( 10.02, 162.09)
8 05/31/2017 16:20:46 ( 22.69, 139.73) 05/31/2017 16:21:01 ( 21.81, 139.51)
9 06/01/2017 03:29:52 ( 10.05, 147.24) 06/01/2017 03:33:27 ( 22.67, 144.24)
10 06/01/2017 16:01:44 ( 22.67, 144.49) 06/01/2017 16:05:19 ( 10.04, 141.48)
11 06/02/2017 03:10:49 ( 10.02, 152.01) 06/02/2017 03:14:25 ( 22.70, 148.99)
12 06/02/2017 15:42:42 ( 22.70, 149.25) 06/02/2017 15:46:18 ( 10.02, 146.23)
13 06/03/2017 02:51:48 ( 10.05, 156.76) 06/03/2017 02:55:23 ( 22.67, 153.76)
14 06/03/2017 15:23:41 ( 22.67, 154.00) 06/03/2017 15:27:16 ( 10.05, 151.00)
15 06/04/2017 02:32:45 ( 10.01, 161.53) 06/04/2017 02:36:21 ( 22.69, 158.51)
16 06/04/2017 15:04:39 ( 22.65, 158.76) 06/04/2017 15:08:14 ( 10.02, 155.75)
17 06/05/2017 02:14:35 ( 13.04, 165.59) 06/05/2017 02:17:19 ( 22.66, 163.28)
18 06/05/2017 03:55:14 ( 10.05, 140.90) 06/05/2017 03:56:56 ( 16.04, 139.51)
19 06/05/2017 14:45:37 ( 22.68, 163.52) 06/05/2017 14:49:12 ( 10.06, 160.52)
20 06/06/2017 03:36:11 ( 10.01, 145.67) 06/06/2017 03:39:47 ( 22.69, 142.65)
21 06/06/2017 14:29:46 ( 11.44, 165.59) 06/06/2017 14:30:10 ( 10.03, 165.27)
22 06/06/2017 16:08:05 ( 22.64, 142.90) 06/06/2017 16:11:40 ( 10.02, 139.90)
23 06/07/2017 03:17:10 ( 10.04, 150.42) 06/07/2017 03:20:45 ( 22.66, 147.42)
24 06/07/2017 15:49:03 ( 22.67, 147.66) 06/07/2017 15:52:38 ( 10.05, 144.66)
25 06/08/2017 02:58:07 ( 10.01, 155.19) 06/08/2017 03:01:43 ( 22.69, 152.17)
26 06/08/2017 15:30:01 ( 22.65, 152.42) 06/08/2017 15:33:36 ( 10.03, 149.41)
27 06/09/2017 02:39:06 ( 10.04, 159.94) 06/09/2017 02:42:41 ( 22.66, 156.94)
28 06/09/2017 15:10:59 ( 22.68, 157.18) 06/09/2017 15:14:34 ( 10.06, 154.18)
29 06/10/2017 02:20:04 ( 10.01, 164.71) 06/10/2017 02:23:40 ( 22.69, 161.69)
30 06/10/2017 14:51:57 ( 22.65, 161.93) 06/10/2017 14:55:32 ( 10.03, 158.93)
31 06/11/2017 03:42:32 ( 10.04, 144.08) 06/11/2017 03:46:07 ( 22.66, 141.08)
32 06/11/2017 14:34:12 ( 18.16, 165.59) 06/11/2017 14:36:30 ( 10.06, 163.70)


NCC Satellite Cal/Val Overpasses Prediction Service
